Probability
0 0 0 0 0 0 0 0 0 0 0 0 0 0 0 0 0 0 0 0 0 0 0 0 0 0 0 0 0 0 0 0 0 0 0 0 0 0 0 0 0 0 0 0
0 0 0 0 0 0 0 0 0 0 0 0 0 0 0 0 0 0 0 0 0 0 0 0 0 0 0 0 0 0 0 0 0 0 0 0 0 0 0 0 0 0 0 0
0 0 0 0 0 0 0 0 0 0 0 0 0 0 0 0 0 0 0 0 0 0 0 0 0 0 0 0 0 0 0 0 0 0 0 0 0 0 0 0 0 0 0 0
0 0 0 0 0 0 0 0 0 0 0 0 0 0 0 0 0 0 0 0 0 0 0 0 0 0 0 0 0 0 0 0 0 0 0 0 0 0 0 0 0 0 0 0
0 0 0 0 0 0 0 0 0 0 0 0 0 0 0 0 0 0 0 0 0 0 0 0 0 0 0 0 0 0 0 0 0 0 0 0 0 0 0 0 0 0 0 0
0 0 0 0 0 0 0 0 0 0 0 0 0 0 0 0 0 0 0 0 0 0 0 0 0 0 0 0 0 0 0 0 0 0 0 0 0 0 0 0 0 0 0 0
0 0 0 0 0 0 0 0 0 0 0 0 0 0 0 0 0 0 0 0 0 0 0 0 0 0 0 0 0 0 0 0 0 0 0 0 0 0 0 0 0 0 0 0
0 0 0 0 0 0 0 0 0 0 0 0 0 0 0 0 0 0 0 0 0 0 0 0 0 0 0 0 0 0 0 0 0 0 0 0 0 0 0 0 0 0 0 0
0 0 0 0 0 0 0 0 0 0 0 0 0 0 0 0 0 0 0 0 0 0 0 0 0 0 0 0 0 0 0 0 0 0 0 0 0 0 0 0 0 0 0 0
0 0 0 0 0 0 0 0 0 0 0 0 0 0 0 0 0 0 0 0 0 0 0 0 0 0 0 0 0 0 0 0 0 0 0 0 0 0 0 0 0 0 0 0
0 0 0 0 0 0 0 0 0 0 0 0 0 0 0 0 0 0 0 0 0 0 0 0 0 0 0 0 0 0 0 0 0 0 0 0 0 0 0 0 0 0 0 0
0 0 0 0 0 0 0 0 0 0 0 0 0 0 0 0 0 0 0 0 0 0 0 0 0 0 0 0 0 0 0 0 0 0 0 0 0 0 0 0 0 0 0 0
0 0 0 0 0 0 0 0 0 0 0 0 0 0 0 0 0 0 0 0 0 0 0 0 0 0 0 0 0 0 0 0 0 0 0 0 0 0 0 0 0 0 0 0
0 0 0 0 0 0 0 0 0 0 0 0 0 0 0 0 0 0 0 0 0 0 0 0 0 0 0 0 0 0 0 0 0 0 0 0 0 0 0 0 0 0 0 0
0 0 0 0 0 0 0 0 0 0 0 0 0 0 0 0 0 0 0 0 0 0 0 0 0 0 0 0 0 0 0 0 0 0 0 0 0 0 0 0 0 0 0 0
0 0 0 0 0 0 0 0 0 0 0 0 0 0 0 0 0 0 0 0 0 0 0 0 0 0 0 0 0 0 0 0 0 0 0 0 0 0 0 0 0 0 0 0
0 0 0 0 0 0 0 0 0 0 0 0 0 0 0 0 0 0 0 0 0 0 0 0 0 0 0 0 0 0 0 0 0 0 0 0 0 0 0 0 0 0 0 0
0 0 0 0 0 0 0 0 0 0 0 0 0 0 0 0 0 0 0 0 0 0 0 0 0 0 0 0 0 0 0 0 0 0 0 0 0 0 0 0 0 0 0 0
0 0 0 0 0 0 0 0 0 0 0 0 0 0 0 0 0 0 0 0 0 0 0 0 0 0 0 0 0 0 0 0 0 0 0 0 0 0 0 0 0 0 0 0
0 0 0 0 0 0 0 0 0 0 0 0 0 0 0 0 0 0 0 0 0 0 0 0 0 0 0 0 0 0 0 0 0 0 0 0 0 0 0 0 0 0 0 0
0 0 0 0 0 0 0 0 0 0 0 0 0 0 0 0 0 0 0 0 0 0 0 0 0 0 0 0 0 0 0 0 0 0 0 0 0 0 0 0 0 0 0 0
0 0 0 0 0 0 0 0 0 0 0 0 0 0 0 0 0 0 0 0 0 0 0 0 0 0 0 0 0 0 0 0 0 0 0 0 0 0 0 0 0 0 0 0
0 0 0 0 0 0 0 0 0 0 0 0 0 0 0 0 0 0 0 0 0 0 0 0 0 0 0 0 0 0 0 0 0 0 0 0 0 0 0 0 0 0 0 0
0 0 0 0 0 0 0 0 0 0 0 0 0 0 0 0 0 0 0 0 0 0 0 0 0 0 0 0 0 0 0 0 0 0 0 0 0 0 0 0 0 0 0 0
0 0 0 0 0 0 0 0 0 0 0 0 0 0 0 0 0 0 0 0 0 0 0 0 0 0 0 0 0 0 0 0 0 0 0 0 0 0 0 0 0 0 0 0
0 0 0 0 0 0 0 0 0 0 0 0 0 0 0 0 0 0 0 0 0 0 0 0 0 0 0 0 0 0 0 0 0 0 0 0 0 0 0 0 0 0 0 0
0 0 0 0 0 0 0 0 0 0 0 0 0 0 0 0 0 0 0 0 0 0 0 0 0 0 0 0 0 0 0 0 0 0 0 0 0 0 0 0 0 0 0 0
Wind_Speed
25 27 27 28 24 16 19 21 23 26 24 32 26 13 13 11 8 8 9 9 10 11 11 12 12 13 14 14 13 14 15 16 15 13 12 11 11 11 10 9 9 8 7 6
26 29 28 28 26 28 31 28 28 27 33 34 26 21 20 17 12 12 13 12 11 12 12 12 13 13 13 13 12 14 15 14 12 13 13 12 12 11 11 9 8 8 7 6
19 24 21 27 34 37 33 33 32 33 35 30 28 29 24 16 12 13 12 10 11 11 12 12 12 13 13 12 11 13 13 13 14 14 14 13 13 12 11 10 9 8 7 7
12 15 31 22 22 31 36 39 35 28 25 28 30 24 15 12 13 12 11 12 11 10 9 9 9 9 9 10 12 13 13 14 14 15 14 13 13 12 11 10 9 8 7 6
15 23 22 13 15 21 26 29 26 28 28 27 23 16 16 17 13 12 13 11 9 7 6 5 6 8 10 10 12 13 15 15 16 16 15 14 14 13 11 10 8 7 6 6
23 24 17 13 17 19 17 20 16 19 19 15 11 10 13 11 6 7 6 4 3 2 2 4 5 9 11 12 13 15 16 15 15 15 16 15 14 12 10 9 8 7 5 5
29 30 18 6 8 5 13 7 9 10 10 9 6 6 9 10 7 4 3 2 1 1 2 3 6 9 11 12 15 13 12 13 14 14 14 14 13 11 11 9 8 6 5 4
18 25 15 10 6 4 10 15 15 14 13 12 10 10 10 9 9 7 5 4 2 2 4 3 7 10 11 13 11 12 13 14 14 13 13 12 13 12 10 9 8 6 5 4
7 9 12 10 10 14 14 14 12 12 14 15 15 14 13 11 10 10 9 7 4 5 6 5 8 10 13 11 12 14 14 14 14 14 12 13 13 13 10 8 7 6 5 4
11 11 19 23 18 11 8 10 13 14 15 15 16 16 15 13 12 10 10 9 7 7 9 10 10 12 10 11 14 16 16 15 14 14 14 12 10 10 10 9 8 7 6 5
21 18 17 12 13 18 18 14 13 12 12 13 15 17 16 15 14 12 11 9 8 10 13 14 12 13 11 14 17 17 17 16 15 14 13 12 10 9 9 7 8 8 6 5
22 21 22 26 22 19 16 16 15 15 15 13 12 16 17 16 15 13 13 11 10 12 14 14 14 15 15 17 19 20 17 16 14 13 12 11 11 9 11 11 13 12 10 8
22 19 18 18 15 13 15 18 19 18 19 21 18 15 17 18 17 15 15 15 14 15 16 15 15 17 18 20 21 22 19 18 14 14 13 13 12 12 12 10 12 12 11 9
7 10 14 13 13 18 20 20 20 21 21 20 19 18 18 18 18 18 18 16 15 15 14 14 17 19 19 21 21 21 19 18 16 14 14 13 13 12 11 12 11 7 6 7
8 9 12 16 18 18 18 20 22 24 24 24 21 20 20 20 21 21 20 18 17 15 14 14 18 19 19 21 22 21 18 15 14 14 13 12 12 11 10 11 10 8 5 3
16 14 12 14 18 21 22 22 22 25 25 26 25 23 22 22 24 25 24 20 18 18 16 15 19 18 20 22 21 18 16 20 18 15 14 13 12 11 11 10 9 8 7 4
12 14 14 18 22 24 23 21 22 24 25 26 27 27 26 26 26 27 25 20 19 21 18 18 17 18 21 22 22 17 16 18 21 17 14 14 13 12 11 10 9 8 6 5
12 16 18 21 23 26 27 25 23 24 24 26 27 27 27 26 27 28 25 21 20 22 18 15 15 19 21 22 19 15 15 16 15 15 14 13 12 11 10 10 10 9 5 3
15 18 20 21 22 23 25 25 24 23 23 23 25 27 27 27 26 27 24 22 22 21 12 11 20 20 20 21 19 14 16 17 15 14 13 16 13 10 10 9 9 7 6 5
16 17 18 19 18 20 22 21 22 22 21 22 24 26 27 26 23 22 21 20 16 10 8 13 17 17 17 19 18 13 16 17 17 15 13 12 12 11 9 9 8 7 6 5
18 18 19 19 19 18 19 20 20 21 20 20 21 23 22 20 15 12 10 8 4 6 13 18 14 14 14 15 16 13 14 15 15 14 13 12 12 11 10 9 8 7 5 4
17 18 19 19 19 19 17 16 17 17 17 17 17 17 15 12 10 8 8 5 8 13 13 12 12 15 17 17 13 14 14 15 14 13 12 11 11 10 9 9 7 6 5 4
17 18 18 18 18 18 17 15 15 14 14 14 14 13 11 10 8 7 8 7 8 13 11 10 16 21 20 13 13 14 15 15 13 12 11 10 10 9 9 8 6 6 5 4
17 17 16 15 15 14 15 15 14 11 11 10 10 11 9 7 8 8 8 10 13 14 11 16 21 20 17 11 12 13 13 13 12 11 11 10 9 8 7 7 6 5 4 3
15 14 13 14 12 11 12 13 12 10 10 8 10 11 9 7 7 8 8 11 15 15 13 16 19 17 13 12 12 13 12 12 12 11 10 9 8 8 7 6 5 4 3 2
13 11 10 10 9 9 9 9 8 8 8 8 8 9 8 8 9 9 10 13 16 15 12 11 12 13 12 12 13 13 12 12 11 10 10 9 8 7 6 5 5 3 2 2
11 9 8 7 7 8 8 8 8 9 9 8 9 9 10 10 10 11 12 11 11 11 11 11 11 11 11 12 12 12 11 10 9 9 8 7 6 6 5 5 3 3 2 1
Wind_Direction
241 249 256 259 262 258 250 247 249 257 259 264 269 258 256 250 242 239 242 236 229 225 223 219 213 210 207 204 192 183 182 186 186 172 162 159 160 162 163 165 165 164 171 184
238 240 244 251 254 252 248 247 249 253 258 258 269 273 267 264 262 258 252 244 237 233 228 224 218 214 208 201 187 177 181 181 166 158 158 160 160 162 164 163 160 165 178 191
240 239 242 240 238 243 248 247 246 248 254 265 266 263 265 271 261 247 247 245 241 236 232 227 221 212 205 194 171 170 171 163 159 157 158 160 160 164 168 168 167 175 185 197
245 232 236 235 232 236 243 248 249 249 253 255 259 266 269 261 256 257 254 251 247 241 237 229 217 202 185 163 162 164 162 160 159 157 159 160 164 171 170 167 171 176 186 194
240 243 248 242 227 226 235 245 247 251 252 254 260 268 265 255 244 241 246 246 244 234 229 221 196 170 152 153 156 161 167 167 164 161 161 164 170 173 169 163 166 170 174 188
244 247 246 230 228 234 246 254 253 259 266 270 266 257 268 288 281 255 251 252 246 226 185 178 167 146 149 160 166 176 174 167 161 161 164 169 170 165 159 158 159 164 179 190
246 252 252 236 249 250 238 268 328 316 321 328 308 288 304 319 329 326 322 324 337 257 220 196 160 151 162 172 185 176 158 156 159 162 165 163 158 155 150 152 153 161 171 198
247 249 250 16 345 308 329 333 329 335 339 336 324 316 317 320 319 317 312 303 280 250 243 198 168 166 180 191 174 153 154 155 158 159 158 158 154 150 150 150 152 162 180 202
312 304 325 329 320 311 307 316 330 334 331 327 321 316 313 309 305 298 291 280 252 228 230 210 189 187 196 185 157 155 156 158 158 159 159 158 155 150 150 154 159 165 172 182
291 286 302 303 301 301 322 326 319 312 310 308 302 300 298 293 287 281 273 261 244 225 225 222 204 202 197 167 160 158 161 161 162 162 159 157 154 152 155 162 165 165 169 170
288 290 292 294 315 319 314 307 302 301 299 297 297 295 293 291 287 280 270 254 231 222 226 226 208 202 185 167 162 164 165 166 167 167 161 156 155 157 158 162 165 161 161 159
287 297 297 299 305 313 313 315 319 317 309 299 292 293 293 289 285 282 276 266 244 229 227 223 205 198 184 171 168 168 170 173 171 166 161 154 146 143 157 154 163 164 162 162
285 296 293 297 308 330 330 322 320 316 309 304 299 292 288 287 285 280 274 268 253 238 229 218 201 194 183 175 174 176 176 173 170 166 160 155 152 150 149 153 163 161 160 163
345 345 312 318 320 318 316 316 316 310 304 301 303 303 299 295 292 288 282 278 269 253 236 213 199 195 182 176 177 179 175 172 168 165 160 157 156 155 153 154 157 154 157 160
355 341 300 298 301 307 313 316 314 308 308 307 307 304 303 301 296 291 289 287 283 266 242 214 201 195 176 175 178 177 173 169 165 158 154 151 149 148 149 150 150 147 149 156
319 310 302 301 304 308 311 311 308 303 305 304 304 302 301 297 292 288 284 281 278 264 245 218 206 189 173 175 175 173 172 166 158 152 147 146 146 147 148 148 147 150 155 163
322 316 318 312 307 304 301 300 299 299 300 299 300 300 298 293 288 283 280 277 270 263 248 224 206 177 173 175 172 169 164 161 155 148 147 148 149 149 149 148 148 147 150 170
297 292 294 295 297 299 300 301 299 298 296 295 295 291 288 285 282 281 282 281 276 267 250 218 187 169 172 173 169 161 157 156 154 147 143 143 142 141 142 141 142 142 143 154
300 296 295 294 294 294 295 297 297 296 294 292 290 287 284 280 277 276 277 273 267 261 236 183 169 164 166 166 160 154 152 148 142 138 135 135 133 134 137 137 139 142 143 142
299 296 294 293 291 290 292 293 294 294 293 292 291 291 289 285 279 273 269 264 260 242 169 152 151 151 153 157 152 150 148 142 136 134 133 134 134 135 135 136 139 142 144 146
302 301 300 299 298 295 294 295 296 296 299 300 300 299 299 301 301 292 279 278 307 126 133 133 134 138 141 143 142 142 138 134 132 133 133 133 133 134 135 138 141 143 145 147
307 306 305 305 304 304 303 302 301 303 308 310 311 315 320 331 346 3 24 50 78 100 108 117 124 130 135 135 133 131 129 127 125 126 128 131 134 136 137 140 142 142 142 142
310 309 309 310 310 309 310 311 312 314 318 322 327 333 343 357 7 31 50 53 77 93 98 108 123 127 127 122 122 122 121 120 119 121 124 127 129 131 134 135 136 138 141 140
313 314 315 316 316 317 321 324 324 327 330 333 343 351 358 14 32 42 62 77 82 91 98 116 120 118 114 111 112 111 111 111 112 114 115 115 117 120 124 128 131 132 133 136
317 318 322 326 330 330 328 330 334 342 352 359 6 14 21 33 50 57 67 80 92 94 97 103 103 100 98 99 101 102 102 104 109 112 112 114 115 117 119 123 128 133 139 150
323 327 331 333 335 336 338 343 351 358 3 11 19 24 31 41 51 59 66 70 74 78 78 80 83 84 86 89 91 94 97 101 101 102 108 111 115 117 122 128 133 137 147 171
330 337 340 345 350 354 356 0 5 10 14 20 28 31 36 44 52 58 63 66 68 69 71 72 75 78 82 85 88 89 91 93 96 100 105 109 114 118 128 133 136 143 157 204